AirNav  
 
 459 users online  

8MD3 Sinai II Heliport
Baltimore, Maryland, USA

GOING TO BALTIMORE?


FAA INFORMATION EFFECTIVE 07 DECEMBER 2017

Location

FAA Identifier: 8MD3
Lat/Long: 39-21-07.0600N / 076-39-42.6100W
39-21.117667N / 076-39.710167W
39.3519611 / -76.6618361
(estimated)
Elevation: 320 ft. / 98 m (estimated)
Variation: 11W (1995)
From city: 4 miles SW of BALTIMORE, MD
Time zone: UTC -5 (UTC -4 during Daylight Saving Time)
Zip code: 21209

Heliport Operations

Heliport use: Private use. Permission required prior to landing
Activation date: 06/1999
Control tower: no
ARTCC: WASHINGTON CENTER
FSS: LEESBURG FLIGHT SERVICE STATION
Attendance: UNATNDD
Wind indicator: yes
Segmented circle: no
Lights: SS-SR

Heliport Communications

WX ASOS at BWI (11 nm S): PHONE 410-691-1278
WX AWOS-3PT at MTN (12 nm E): 124.925 (410-682-8848)
WX AWOS-3 at FME (17 nm S): 123.925

Nearby radio navigation aids

VOR radial/distance  VOR name  Freq  Var
BALr011/10.9BALTIMORE VORTAC115.1011W
EMIr128/17.0WESTMINSTER VORTAC117.9008W
PPMr262/23.8PHILLIPS VOR/DME108.4009W
FDKr104/(33.3)FREDERICK VOR109.0008W
ADWr026/34.0ANDREWS VORTAC113.1010W
DCAr040/34.3WASHINGTON VOR/DME111.0009W
OTTr016/39.0NOTTINGHAM VORTAC113.7010W

 
NDB name  Hdg/Dist  Freq  Var  ID
ELLICOTT065/6.637111WFND ..-. -. -..
ABERDEEN257/28.034910WAPG .- .--. --.
GEORGETOWN049/33.232309WGTN --. - -.
OXONN037/39.133211WDCA -.. -.-. .-

Heliport Services

Runway Information

Helipad H1

Dimensions: 40 x 38 ft. / 12 x 12 m
Surface: ROOF/TOP, in good condition
Runway edge lights: PERI
Latitude: 39-21.117667N
Longitude: 076-39.710167W
Elevation: 320.0 ft.
Traffic pattern: leftleft

Heliport Ownership and Management from official FAA records

Ownership: Privately-owned
Owner: SINAI HOSPITAL
2401 W BELVEDERE AVE
BALTIMORE, MD 21215-5271
Phone 410-601-5036
Manager: CHARLES MOORE
2401 W BELVEDERE AVE
BALTIMORE, MD 21215-5271
Phone 410-601-9842

Additional Remarks

A52-H1 1259 FT ANTENNA 500 FT S, 100 FT LDG 100 FT W, 200 SMOKE STACK 100 FT SE.

Instrument Procedures

There are no published instrument procedures at 8MD3.

Some nearby airports with instrument procedures:

KBWI - Baltimore/Washington International Thurgood Marshall Airport (11 nm S)
KMTN - Martin State Airport (12 nm E)
KFME - Tipton Airport (17 nm S)
2W2 - Clearview Airpark (18 nm NW)
KDMW - Carroll County Regional Airport/Jack B Poage Field (22 nm NW)
 
Loc | Ops | Rwys | IFR | FBO | Links
Com | Nav | Svcs | Stats | Notes


 
Area around 8MD3 (Sinai II Heliport)
 
Road maps at: MapQuest Bing Google
 
Aerial photo
No photo
 
Sectional chart

 
Airport distance calculator
Flying to Sinai II Heliport? Find the distance to fly.

From to 8MD3

Sunrise and sunset
Times for 13-Dec-2017
 Local
(UTC-5)
 Zulu
(UTC)
Morning civil twilight06:4911:49
Sunrise07:1912:19
Sunset16:4321:43
Evening civil twilight17:1322:13

Current date and time
Zulu (UTC)  13-Dec-2017 07:39:44
Local (UTC-5)  13-Dec-2017 02:39:44
 
METAR
KDMH 
5nm SE 
130654Z AUTO M04/M17 A2976 RMK AO1 SLP077 T10441167
KBWI 
11nm S 
130654Z 30014G24KT 10SM SCT060 M06/M17 A2974 RMK AO2 PK WND 29030/0556 SLP071 T10561172
KMTN 
12nm E 
130712Z AUTO 28014G22KT 10SM CLR M05/M16 A2975 RMK AO2
KFME 
17nm S 
130706Z AUTO 29011G22KT 10SM SCT055 M06/M15 A2977 RMK AO1
TAF
KBWI 
11nm S 
130530Z 1306/1412 29017G27KT P6SM BKN050 FM131300 29017G27KT P6SM FEW250 FM132200 26008KT P6SM BKN050 FM140200 23004KT P6SM OVC070
KMTN 
12nm E 
121720Z 1218/1318 27011G18KT P6SM SCT050 BKN090 FM122100 29015G26KT P6SM SCT045 BKN050 FM122300 29018G30KT P6SM FEW050 SCT080
NOTAMs
Click for the latest NOTAMs
NOTAMs are issued by the DoD/FAA and will open in a separate window not controlled by AirNav.

 

 
 

Would you like to see your business listed on this page?

 If your business provides an interesting product or service to pilots, flight crews, aircraft, or users of the Sinai II Heliport, you should consider listing it here.  To start the listing process, click on the button below
 
Add a business
 

Other Pages about Sinai II Heliport

Update a link
 
Copyright © AirNav, LLC. All rights reserved. Privacy Policy  Contact